OBJECT BA, 61783

Orbit data source: Space-Track

You're viewing an Uncataloged Satellite

Recently launched and/or uncataloged satellites may have evolving metadata. Metadata may include but not limited to: Owner, Maufacturer, Bus, Motor, and Mission.

OBJECT BA, 61783 is a satellite in SSO that was launched on Mon, 04 Nov 2024 UTC via a SOYUZ-2-1B launch vehicle from the Vostochny Cosmodrome (VOSTO). Unknown objects in Earth's orbit typically refer to objects detected orbiting the Earth but have not yet been identified or cataloged. These objects could be anything from previously untracked satellites, spent rocket stages, debris from satellite collisions, or even natural meteoroids temporarily captured by Earth's gravity.

Not visible in the next 10 days
Identifier
61783, 2024-199BA
Orbit
SSO
Country
Flag of TBDTBD
Related business
Flag of ZWZimbabwe National Geospatial and Space Agency (ZW)
Manufacturer
Yugo-Zapad. GU
Mission
Operational Civil Imaging
Bus & Motor
CUBESAT 3U, Unknown motor
Mass
5 kg wet, 5 kg dry
Launch date (UTC)
2024-11-04 (1 year ago)
Launch vehicle
SOYUZ-2-1B
Launch site
Vostochny Cosmodrome (VOSTO)
Object type
Unknown
Shape & HBR
Box, 0.1 m
Radar Cross Section
0.035 m², Small (<0.1 m²)

Expand to show TLE details & history
Last TLE update: 7 hours ago

TLE from 7 hours ago
0 OBJECT BA
1 61783U 24199BA  25297.96970595  .00112596  00000-0  15680-2 0  9991
2 61783  97.3199 169.1743 0012068  58.2211 302.0218 15.56476056101386
Epoch: 2025-10-24T23:16Z
TLE epoch observation values (Epoch: 2025-10-24T23:16:22.594Z)
Latitude
0.00001°
Longitude
146.47318°
Altitude
396.678 km
Speed
7.675 km/s
True Right ascension
11h 16m 41s
True Declination
0° 00' 00"
Sunlit
Object was in daylight at epoch
Visualization orbit readout
Latitude
Unknown
Longitude
Unknown
Altitude
Unknown
Speed
Unknown
Apparent Right ascension
Unknown
Apparent Declination
Unknown
Sunlit
N/A
Visualization observer readout
Local Sidereal Time
01:13:12
Azimuth
Unknown
Elevation
Unknown
Doppler factor
Unknown
Orbital elements
Apogee altitude
402.953 km
Perigee altitude
386.605 km
Semi-major axis
6,772.916 km
Eccentricity
0.00121
Inclination
97.3199°
RAAN
169.1743°
Arg. of periapsis
58.2211°
True anomaly
301.90446°
Mean anomaly
302.0218°
Eccentric anomaly
301.96314°
Mean motion
3.89385 °/min
Orbital period
92.45 mins
BSTAR
0.001568
Loading maneuver chart data...
Computing Atmospheric mass density...
Loading historical data...
Loading historical data...
Loading historical data...
Loading historical data...
Loading historical data...
Loading historical data...
Loading historical data...

Documentation

Showing up to 5 results
|